Total_Precipitation_Accumulation
0.09 0.40 1.09 3.02 5.29 5.23 4.22 4.07 3.05 2.23 1.02 0.48 0.38 0.54 1.09 1.67 2.30 2.92 0.58 0.40 0.17 0.18 0.54 1.70 2.52 1.81 1.40 1.60 1.38 1.23 0.93 0.98 1.17 0.97 0.69 0.51 0.68 0.86 0.76 0.89 1.28 1.41 1.05 0.76 0.67 0.89 1.07 0.95 0.93
0.25 0.74 2.41 5.79 5.84 5.75 6.17 3.09 2.53 1.82 0.78 0.41 0.32 0.43 1.28 0.65 0.09 0.21 0.28 0.28 0.15 0.12 0.27 0.86 2.42 1.90 1.22 1.26 1.24 1.25 0.89 1.17 1.25 1.29 1.43 1.19 1.16 1.23 1.21 1.11 1.51 1.58 1.48 1.25 1.22 1.23 1.03 1.17 1.29
0.61 1.84 6.58 8.32 6.88 8.83 7.34 3.39 2.45 1.19 0.62 0.30 0.29 0.37 0.46 0.23 0.07 0.14 0.16 0.11 0.26 0.40 0.29 0.78 2.16 2.01 1.50 1.26 1.19 1.48 1.54 1.47 1.32 1.64 1.88 1.87 1.66 1.91 1.97 1.39 1.21 1.25 1.20 1.13 1.04 1.34 1.57 1.71 1.69
0.97 3.50 6.10 5.62 6.58 5.32 4.32 3.36 2.23 1.18 0.67 0.41 0.58 0.31 0.14 0.08 0.02 0.03 0.12 0.23 0.35 0.67 0.63 1.35 1.68 1.73 2.01 1.52 1.55 1.59 2.02 1.99 1.88 1.95 1.90 1.92 2.20 2.02 1.85 1.35 1.13 0.93 0.66 0.54 0.76 1.13 1.39 1.61 1.75
1.29 4.89 8.98 5.30 3.94 3.90 2.31 1.83 1.65 1.29 0.84 0.66 0.34 0.32 0.22 0.13 0.06 0.07 0.08 0.19 0.28 0.41 0.47 1.00 2.23 2.07 1.93 1.73 1.83 1.59 1.80 1.68 1.72 2.23 2.52 2.46 2.25 1.79 1.79 1.20 0.73 0.67 0.40 0.28 0.59 0.92 1.15 1.31 1.39
2.56 5.02 6.95 3.50 2.44 3.80 2.59 1.71 1.73 1.35 1.22 1.07 0.37 0.28 0.29 0.21 0.08 0.10 0.09 0.14 0.22 0.26 0.36 0.97 2.40 3.32 3.29 2.43 1.97 1.60 1.44 1.57 2.10 2.47 2.42 2.36 2.42 2.11 1.50 0.91 0.46 0.43 0.36 0.49 0.41 0.65 1.25 1.33 1.35
2.84 6.96 3.73 2.52 2.32 4.43 3.46 2.22 2.05 1.03 0.78 0.68 0.24 0.23 0.61 0.51 0.30 0.17 0.16 0.31 0.36 0.35 0.83 1.04 1.63 2.94 4.25 4.77 3.12 1.88 1.42 1.49 1.96 2.41 2.48 2.36 2.07 1.86 1.23 0.86 0.41 0.28 0.47 0.45 0.85 1.22 1.29 1.47 1.54
3.26 6.11 5.26 2.52 3.17 3.69 1.57 1.05 1.37 0.93 0.83 0.51 0.28 0.42 1.73 0.76 0.41 0.24 0.29 0.31 0.44 0.64 0.59 1.24 1.80 2.64 3.36 2.46 3.43 2.85 1.76 1.61 2.02 2.29 2.28 2.42 2.27 2.17 1.65 1.04 0.65 0.44 0.53 0.61 0.86 1.15 1.02 1.29 1.37
1.64 5.68 5.16 2.64 2.48 2.41 1.18 1.07 1.66 1.13 0.47 0.33 0.38 0.26 0.16 0.09 0.17 0.25 0.29 0.56 0.45 0.63 0.89 0.88 1.25 1.50 2.14 2.38 2.07 2.49 2.07 2.21 2.64 2.61 2.68 2.62 1.91 1.37 1.46 1.14 0.56 0.52 0.54 0.53 0.73 0.62 1.00 1.49 1.51
3.62 6.54 5.66 2.95 1.52 1.01 0.74 1.20 0.72 0.54 0.56 0.67 0.46 0.30 0.31 0.18 0.17 0.19 0.18 0.28 0.38 0.43 1.03 1.52 1.45 0.88 0.89 1.25 1.76 1.96 2.24 2.95 2.73 1.94 2.12 2.15 1.10 0.71 0.80 0.98 0.69 0.70 0.72 0.93 0.97 1.06 1.68 2.25 2.78
2.72 5.14 3.77 3.18 1.30 0.88 1.02 1.18 0.71 0.47 1.44 1.69 1.25 0.73 0.63 0.21 0.18 0.13 0.17 0.20 0.15 0.21 0.39 1.51 1.03 1.12 0.71 1.02 1.15 1.19 1.72 1.35 0.88 1.12 1.72 1.91 0.92 0.87 0.92 0.60 0.52 0.35 1.12 1.62 1.79 1.73 2.26 2.37 2.78
1.96 2.41 2.56 2.66 1.14 0.93 1.56 1.28 1.39 1.04 1.45 0.55 0.55 0.24 0.17 0.11 0.29 0.26 0.21 0.23 0.31 0.20 0.35 0.39 0.62 0.96 0.76 0.58 0.84 1.14 1.05 0.72 0.49 0.57 0.75 0.78 1.03 1.19 1.35 1.09 1.17 1.04 0.62 1.83 2.07 2.42 1.30 1.67 2.39
1.38 2.44 1.70 2.03 1.64 1.44 0.97 0.94 1.53 1.21 2.29 0.80 0.31 0.12 0.08 0.17 0.48 0.62 0.52 0.59 0.39 0.33 0.24 0.29 0.49 0.86 0.86 1.03 1.24 0.91 0.60 0.55 0.61 0.93 1.24 1.72 0.98 0.90 0.62 1.11 1.23 1.45 0.92 1.66 1.40 1.81 1.56 1.56 1.85
1.03 1.58 1.31 1.51 2.17 1.44 1.53 0.96 0.62 1.04 0.95 0.78 0.38 0.16 0.24 0.28 0.47 0.99 0.91 1.06 0.57 0.53 0.39 0.36 0.65 0.53 0.49 0.64 0.88 0.77 0.72 0.38 0.74 0.94 1.60 1.58 1.03 1.25 1.21 1.28 1.27 1.75 0.99 1.14 1.20 1.85 1.72 1.75 1.94
0.87 1.77 1.78 1.65 1.95 1.79 2.23 2.89 1.29 1.17 0.81 0.67 0.43 0.48 0.52 0.76 1.05 3.11 2.34 1.58 1.14 0.67 0.58 0.50 0.60 0.40 0.40 0.63 0.77 0.98 0.93 0.47 0.69 1.51 1.23 0.93 1.10 1.50 1.81 1.70 1.50 0.91 0.75 0.63 0.77 1.63 1.71 1.64 1.57
2.49 2.75 2.88 2.67 2.08 1.70 2.58 5.77 2.92 1.32 0.86 0.75 0.85 1.11 0.47 1.09 1.48 2.44 1.86 2.45 2.47 0.68 0.68 0.73 0.48 0.31 0.41 0.31 0.71 1.31 1.27 0.56 1.11 1.66 1.47 1.20 1.19 1.52 1.97 2.06 1.53 1.31 0.97 1.08 1.32 2.06 2.03 2.14 2.57
2.02 2.54 3.20 3.07 2.45 2.78 3.28 5.39 3.43 1.19 0.76 1.15 1.66 0.87 0.92 1.76 2.06 2.08 1.32 1.05 0.65 0.96 0.79 1.77 1.46 1.07 1.05 0.64 1.00 1.44 0.91 0.70 1.25 1.68 1.65 1.81 0.97 1.44 1.92 2.65 1.95 1.57 1.52 1.64 1.57 2.10 2.35 2.59 2.15
1.65 1.16 1.95 2.72 2.32 3.29 2.83 2.10 2.32 1.22 2.23 1.40 0.79 0.53 1.68 2.08 1.61 1.27 0.78 0.66 0.47 1.32 1.03 1.51 2.11 1.76 1.23 1.23 1.26 1.28 0.96 0.84 0.71 1.23 1.74 1.99 1.29 0.95 1.43 1.79 1.86 2.51 1.56 1.90 1.90 2.01 1.51 1.69 2.33
0.28 1.08 1.84 2.45 2.44 3.26 2.63 2.10 2.88 1.09 1.78 1.75 0.51 1.13 1.70 1.31 1.37 0.90 0.42 0.62 0.59 1.11 0.95 1.01 2.30 2.92 1.71 0.99 1.08 0.72 0.81 1.06 0.94 1.41 2.78 2.52 1.81 1.22 1.60 1.85 1.94 2.83 2.48 2.44 1.57 1.70 1.74 1.65 1.95
0.23 0.95 1.39 2.34 2.03 3.07 5.05 3.66 2.65 1.37 1.11 0.94 0.74 1.57 1.38 0.84 1.23 0.82 0.47 0.75 0.55 0.39 0.72 0.90 0.91 1.23 1.56 1.22 1.10 0.95 1.00 0.91 1.31 1.62 2.24 1.97 1.17 1.41 1.22 2.10 2.93 2.58 2.04 1.46 1.06 1.32 1.83 2.11 2.08
0.21 0.38 0.73 1.17 1.29 2.03 3.73 5.08 3.44 1.57 1.56 1.49 1.03 0.94 0.54 0.88 1.82 1.02 0.73 0.40 0.63 0.27 0.40 0.62 0.68 0.99 1.23 1.16 1.37 1.42 1.53 1.75 2.41 3.30 2.40 1.63 1.05 0.90 1.08 1.33 1.96 1.85 2.47 1.90 1.42 1.42 1.28 2.85 2.00
0.42 0.28 0.34 0.37 0.50 1.21 0.90 3.39 2.86 1.91 1.77 2.90 1.35 0.91 0.54 0.39 0.65 0.78 0.18 0.12 0.40 0.29 0.18 0.24 0.40 0.66 0.73 0.83 1.10 1.55 1.53 1.81 1.76 1.69 1.73 1.53 0.96 0.63 0.79 0.88 1.52 1.85 1.49 1.74 1.23 0.91 0.93 1.54 2.71
0.08 0.13 0.20 0.45 0.48 0.31 0.41 1.08 1.99 1.54 1.59 1.86 1.56 1.19 0.74 0.59 0.22 0.16 0.30 0.45 0.21 0.13 0.11 0.24 0.33 0.38 0.50 0.68 1.28 1.74 1.36 2.14 2.02 1.46 1.55 1.40 1.12 0.61 0.56 0.79 1.20 1.34 1.21 1.06 0.84 1.10 0.88 0.96 1.68
0.02 0.12 0.22 0.36 0.53 0.42 0.21 0.24 1.01 0.97 1.07 1.37 0.73 0.92 1.19 0.63 0.31 0.40 0.34 0.28 0.22 0.10 0.11 0.13 0.18 0.26 0.36 0.43 0.68 1.19 1.79 2.22 2.08 1.87 1.59 1.25 0.91 0.79 0.94 1.02 1.22 1.21 1.17 1.16 1.08 1.27 1.08 1.03 1.13
0.05 0.17 0.21 0.28 0.21 0.33 0.32 0.54 0.76 0.61 0.55 0.57 0.54 0.85 1.05 1.20 0.61 0.41 0.20 0.28 0.23 0.24 0.09 0.06 0.10 0.13 0.18 0.20 0.38 0.64 1.25 1.60 1.76 1.46 1.31 1.90 1.28 0.94 1.19 1.56 1.56 1.06 0.95 0.88 1.18 1.02 0.83 0.91 1.13
0.01 0.01 0.13 0.36 0.34 0.41 0.51 0.71 0.55 0.15 0.13 0.22 0.32 0.43 0.39 0.39 0.84 0.49 0.47 0.44 0.36 0.66 0.45 0.11 0.10 0.09 0.10 0.24 0.39 0.70 0.96 1.26 1.09 1.07 1.48 2.05 1.34 1.02 1.41 1.43 1.36 1.23 1.14 0.82 0.91 0.78 0.56 0.72 0.75
0.01 0.03 0.04 0.06 0.11 0.08 0.45 1.09 0.91 0.45 0.21 0.29 0.16 0.34 0.45 0.37 0.35 0.45 0.59 0.74 0.51 0.31 0.49 0.48 0.28 0.33 0.33 0.40 0.59 0.56 0.90 1.32 1.39 2.08 1.73 1.76 2.05 1.53 1.92 1.72 1.56 1.69 1.68 1.47 1.48 0.99 0.83 1.15 0.85
0.07 0.16 0.07 0.03 0.08 0.13 0.41 0.88 2.07 1.28 0.95 0.61 0.40 0.23 0.52 0.61 1.02 0.90 0.72 0.88 0.77 0.37 0.26 0.57 0.71 0.30 0.59 0.38 0.37 0.51 1.15 1.15 1.15 1.64 1.20 1.54 1.79 1.95 4.45 3.12 1.74 1.66 1.70 1.61 1.88 1.29 1.15 1.27 1.03
0.05 0.04 0.04 0.03 0.05 0.22 0.57 0.83 1.01 1.65 0.69 0.46 0.63 0.48 0.55 0.71 1.00 2.06 1.84 1.45 1.23 0.95 0.68 1.10 1.43 1.02 0.69 0.49 0.50 0.89 0.97 0.96 0.76 0.60 0.66 0.65 0.92 1.42 1.91 3.26 1.58 1.54 1.63 1.50 2.16 1.88 1.76 1.87 1.37
0.20 0.11 0.15 0.03 0.15 0.29 0.39 0.78 1.00 1.61 0.80 0.45 0.47 0.46 0.54 0.72 0.76 1.29 2.10 2.58 3.10 2.61 2.27 2.51 3.15 2.26 1.49 1.15 0.53 1.03 1.37 1.45 0.72 0.41 0.28 0.24 0.49 0.88 1.01 1.34 1.49 1.64 1.34 1.53 2.32 2.15 1.87 2.28 1.95